Terug naar catalogus

STARLINK-3625

ActiefCommunicatieVLEO
NORAD 51777·PAYLOAD·🇺🇸 United States

Gelanceerd Feb 25, 2022 vanaf Vandenberg Space Force Base

Loading…

Volgende Passages (komende 24 uur)

TLE

VersSource: CelesTrak SupGP

Epoch: Sep 14, 2026, 20:37 UTC

1 51777C 22017K   26257.85951389 -.00002416  00000+0 -69094-4 0  2572
2 51777  53.1587 198.3396 0001372 101.9111 182.6890 15.35408441    14

Volg STARLINK-3625 in realtime met AllMySat

Download on the App Store